TimePDT,TemperatureF,Dew PointF,Humidity,Sea Level PressureIn,VisibilityMPH,Wind Direction,Wind SpeedMPH,Gust SpeedMPH,PrecipitationIn,Events,Conditions,WindDirDegrees,DateUTC
12:10 AM,33.8,32.0,93,30.05,10.0,Calm,Calm,-,N/A,,Scattered Clouds,0,2013-05-08 07:10:00
12:30 AM,35.6,35.6,100,30.06,10.0,Calm,Calm,-,N/A,,Overcast,0,2013-05-08 07:30:00
12:50 AM,35.6,33.8,93,30.06,10.0,Calm,Calm,-,N/A,,Overcast,0,2013-05-08 07:50:00
1:10 AM,35.6,35.6,100,30.06,10.0,Calm,Calm,-,N/A,,Overcast,0,2013-05-08 08:10:00
1:30 AM,37.4,37.4,100,30.05,10.0,South,3.5,-,N/A,,Overcast,170,2013-05-08 08:30:00
1:50 AM,39.2,37.4,93,30.06,10.0,South,3.5,-,N/A,,Overcast,170,2013-05-08 08:50:00
2:10 AM,39.2,37.4,93,30.05,10.0,SSW,5.8,-,N/A,,Overcast,200,2013-05-08 09:10:00
2:30 AM,37.4,35.6,93,30.06,10.0,SSW,5.8,-,N/A,,Mostly Cloudy,200,2013-05-08 09:30:00
2:50 AM,37.4,35.6,93,30.06,10.0,SSW,5.8,-,N/A,,Partly Cloudy,200,2013-05-08 09:50:00
3:10 AM,35.6,33.8,93,30.06,10.0,SSW,4.6,-,N/A,,Clear,200,2013-05-08 10:10:00
3:30 AM,33.8,32.0,93,30.07,10.0,Calm,Calm,-,N/A,,Clear,0,2013-05-08 10:30:00
3:50 AM,32.0,32.0,100,30.07,3.0,SSW,3.5,-,N/A,,Clear,200,2013-05-08 10:50:00
4:10 AM,32.0,32.0,100,30.07,10.0,Calm,Calm,-,N/A,,Mostly Cloudy,0,2013-05-08 11:10:00
4:30 AM,33.8,32.0,93,30.08,10.0,Calm,Calm,-,N/A,,Overcast,0,2013-05-08 11:30:00
4:50 AM,35.6,33.8,93,30.08,10.0,Calm,Calm,-,N/A,,Overcast,0,2013-05-08 11:50:00
5:10 AM,37.4,35.6,93,30.08,10.0,Calm,Calm,-,N/A,,Overcast,0,2013-05-08 12:10:00
5:30 AM,37.4,35.6,93,30.09,10.0,North,3.5,-,N/A,,Overcast,10,2013-05-08 12:30:00
5:50 AM,35.6,35.6,100,30.10,10.0,Calm,Calm,-,N/A,,Overcast,0,2013-05-08 12:50:00
6:10 AM,37.4,35.6,93,30.10,10.0,Calm,Calm,-,N/A,,Overcast,0,2013-05-08 13:10:00
6:30 AM,37.4,37.4,100,30.10,10.0,South,4.6,-,N/A,,Overcast,190,2013-05-08 13:30:00
6:50 AM,39.2,37.4,93,30.11,10.0,Calm,Calm,-,N/A,,Overcast,0,2013-05-08 13:50:00
7:10 AM,39.2,37.4,93,30.12,10.0,SSW,4.6,-,N/A,,Overcast,210,2013-05-08 14:10:00
7:30 AM,41.0,39.2,93,30.12,10.0,SSW,6.9,-,N/A,,Overcast,210,2013-05-08 14:30:00
7:50 AM,44.6,39.2,81,30.12,10.0,SW,6.9,-,N/A,,Partly Cloudy,230,2013-05-08 14:50:00
8:10 AM,46.4,39.2,76,30.12,10.0,SW,6.9,-,N/A,,Clear,220,2013-05-08 15:10:00
8:30 AM,46.4,39.2,76,30.13,10.0,WSW,6.9,-,N/A,,Scattered Clouds,240,2013-05-08 15:30:00
8:50 AM,46.4,39.2,76,30.14,10.0,WSW,4.6,-,N/A,,Mostly Cloudy,240,2013-05-08 15:50:00
9:10 AM,48.2,37.4,66,30.14,10.0,Calm,Calm,-,N/A,,Mostly Cloudy,0,2013-05-08 16:10:00
9:30 AM,48.2,37.4,66,30.14,10.0,Calm,Calm,-,N/A,,Overcast,0,2013-05-08 16:30:00
9:50 AM,48.2,39.2,71,30.14,10.0,Calm,Calm,-,N/A,,Mostly Cloudy,0,2013-05-08 16:50:00
10:10 AM,50.0,37.4,62,30.14,10.0,Calm,Calm,-,N/A,,Mostly Cloudy,0,2013-05-08 17:10:00
10:30 AM,53.6,39.2,58,30.14,10.0,Calm,Calm,-,N/A,,Mostly Cloudy,0,2013-05-08 17:30:00
10:50 AM,51.8,39.2,62,30.15,10.0,Calm,Calm,-,N/A,,Overcast,0,2013-05-08 17:50:00
11:10 AM,53.6,39.2,58,30.15,10.0,South,3.5,-,N/A,,Overcast,190,2013-05-08 18:10:00
11:30 AM,57.2,39.2,51,30.14,10.0,West,3.5,-,N/A,,Mostly Cloudy,270,2013-05-08 18:30:00
11:50 AM,55.4,37.4,51,30.14,10.0,Calm,Calm,-,N/A,,Mostly Cloudy,0,2013-05-08 18:50:00
12:10 PM,55.4,37.4,51,30.14,10.0,East,3.5,-,N/A,,Mostly Cloudy,100,2013-05-08 19:10:00
12:30 PM,55.4,37.4,51,30.13,10.0,Calm,Calm,-,N/A,,Mostly Cloudy,0,2013-05-08 19:30:00
12:50 PM,57.2,35.6,44,30.12,10.0,Calm,Calm,-,N/A,,Mostly Cloudy,0,2013-05-08 19:50:00
1:10 PM,57.2,33.8,41,30.12,10.0,Calm,Calm,-,N/A,,Mostly Cloudy,0,2013-05-08 20:10:00
1:30 PM,62.6,37.4,39,30.12,10.0,North,10.4,-,N/A,,Mostly Cloudy,360,2013-05-08 20:30:00
1:50 PM,62.6,37.4,39,30.11,10.0,NNW,9.2,-,N/A,,Unknown,330,2013-05-08 20:50:00
2:10 PM,62.6,35.6,37,30.11,10.0,North,8.1,-,N/A,,Partly Cloudy,360,2013-05-08 21:10:00
2:30 PM,64.4,33.8,32,30.10,10.0,North,6.9,-,N/A,,Clear,350,2013-05-08 21:30:00
2:50 PM,64.4,35.6,34,30.10,10.0,North,13.8,-,N/A,,Mostly Cloudy,360,2013-05-08 21:50:00
3:10 PM,64.4,33.8,32,30.09,10.0,NNE,8.1,-,N/A,,Partly Cloudy,30,2013-05-08 22:10:00
3:30 PM,62.6,32.0,32,30.09,10.0,NNE,8.1,-,N/A,,Clear,20,2013-05-08 22:30:00
3:50 PM,64.4,32.0,30,30.08,10.0,NW,4.6,-,N/A,,Mostly Cloudy,320,2013-05-08 22:50:00
4:10 PM,62.6,32.0,32,30.08,10.0,NNW,3.5,-,N/A,,Mostly Cloudy,330,2013-05-08 23:10:00
4:30 PM,62.6,32.0,32,30.08,10.0,Calm,Calm,-,N/A,,Partly Cloudy,0,2013-05-08 23:30:00
4:50 PM,62.6,32.0,32,30.08,10.0,Calm,Calm,-,N/A,,Scattered Clouds,0,2013-05-08 23:50:00
5:10 PM,62.6,32.0,32,30.08,10.0,North,3.5,-,N/A,,Mostly Cloudy,360,2013-05-09 00:10:00
5:30 PM,57.2,35.6,44,30.10,10.0,ENE,11.5,17.3,N/A,,Overcast,60,2013-05-09 00:30:00
5:50 PM,57.2,35.6,44,30.10,10.0,WSW,9.2,-,N/A,,Overcast,250,2013-05-09 00:50:00
6:10 PM,55.4,37.4,51,30.10,10.0,WSW,8.1,-,N/A,,Mostly Cloudy,240,2013-05-09 01:10:00
6:30 PM,51.8,39.2,62,30.10,10.0,SW,5.8,-,N/A,,Scattered Clouds,220,2013-05-09 01:30:00
6:50 PM,51.8,41.0,67,30.10,10.0,Calm,Calm,-,N/A,,Mostly Cloudy,0,2013-05-09 01:50:00
7:10 PM,50.0,41.0,71,30.10,10.0,South,5.8,-,N/A,,Partly Cloudy,180,2013-05-09 02:10:00
7:30 PM,50.0,41.0,71,30.12,10.0,SE,6.9,-,N/A,,Clear,130,2013-05-09 02:30:00
7:45 PM,48.2,41.0,76,30.12,10.0,SE,5.8,-,N/A,,Clear,140,2013-05-09 02:45:00
8:10 PM,46.4,41.0,81,30.12,10.0,South,3.5,-,N/A,,Clear,170,2013-05-09 03:10:00
8:30 PM,46.4,41.0,81,30.13,10.0,South,4.6,-,N/A,,Clear,180,2013-05-09 03:30:00
8:50 PM,46.4,41.0,81,30.14,10.0,Calm,Calm,-,N/A,,Partly Cloudy,0,2013-05-09 03:50:00
9:10 PM,46.4,39.2,76,30.15,10.0,South,3.5,-,N/A,,Partly Cloudy,180,2013-05-09 04:10:00
9:30 PM,46.4,41.0,81,30.16,10.0,Calm,Calm,-,N/A,,Mostly Cloudy,0,2013-05-09 04:30:00
9:50 PM,46.4,39.2,76,30.16,10.0,SW,6.9,-,N/A,,Overcast,230,2013-05-09 04:50:00
10:10 PM,48.2,39.2,71,30.17,10.0,SW,3.5,-,N/A,,Overcast,230,2013-05-09 05:10:00
10:30 PM,48.2,41.0,76,30.16,10.0,West,4.6,-,N/A,,Overcast,260,2013-05-09 05:30:00
10:50 PM,46.4,39.2,76,30.16,10.0,WSW,4.6,-,N/A,,Overcast,250,2013-05-09 05:50:00
11:10 PM,46.4,41.0,81,30.17,10.0,Calm,Calm,-,N/A,,Overcast,0,2013-05-09 06:10:00
11:30 PM,44.6,39.2,81,30.17,10.0,Calm,Calm,-,N/A,,Overcast,0,2013-05-09 06:30:00
11:50 PM,44.6,39.2,81,30.17,10.0,SSW,5.8,-,N/A,,Overcast,210,2013-05-09 06:50:00